Location: Unspecified
(0.0000°N, 0.0000°E)
Time: 12:29:54
(UTC+01:00)

Cosmos 1536 - Visible Passes

Search period start: 25 November 2017 00:00
Search period end: 05 December 2017 00:00
Orbit: 543 x 559 km, 82.5° (Epoch: 24 November)

Date Brightness Start Highest point End Pass type
(mag) Time Alt. Az. Time Alt. Az. Time Alt. Az.
25 Nov 4.1 19:30:39 10° NE 19:33:42 21° E 19:36:44 10° SE visible
25 Nov 6.0 21:08:42 10° WNW 21:09:50 11° W 21:10:59 10° WSW visible
26 Nov 3.9 19:26:25 10° NNE 19:29:39 24° E 19:32:52 10° SE visible
27 Nov 3.7 19:22:12 10° NNE 19:25:36 27° E 19:28:59 10° SE visible
28 Nov 3.6 19:18:01 10° NNE 19:21:32 31° E 19:25:05 10° SSE visible
29 Nov 3.4 19:13:51 10° NNE 19:17:30 35° E 19:21:09 10° SSE visible
30 Nov 3.2 19:09:42 10° NNE 19:13:26 40° E 19:17:12 10° SSE visible
